This demonstration page uses our WeatherBlox Daily Observations layout. Learn more.

38.80484, -77.04692

Hourly Observations for July 2, 2019

Temp ( °F °C ) Dew Point ( °F °C ) Humidity (%) Winds ( mph kmh ) Pressure ( in mb ) Visibility ( mi km ) Precip ( " mm )
12:52 am 00:52 Partly Cloudy 73 22.8 62 16.7 69 69 SW 6 9 29.94 1014 10 16.09344 0 0
1:52 am 01:52 Partly Cloudy 73 22.8 60 15.6 64 64 SSW 6 9 29.94 1014 10 16.09344 0 0
2:52 am 02:52 Partly Cloudy 72 22.2 62 16.7 71 71 SSW 5 7 29.94 1014 10 16.09344 0 0
3:52 am 03:52 Partly Cloudy 71 21.7 63 17.2 76 76 SW 5 7 29.94 1014 10 16.09344 0 0
4:52 am 04:52 Mostly Clear 70 21.1 63 17.2 79 79 SW 6 9 29.91 1013 10 16.09344 0 0
5:52 am 05:52 Mostly Cloudy 70 21.1 62 16.7 76 76 SW 6 9 29.91 1013 10 16.09344 0 0
6:52 am 06:52 Partly Cloudy 72 22.2 62 16.7 71 71 SSW 7 11 29.91 1013 10 16.09344 0 0
7:52 am 07:52 Mostly Sunny 75 23.9 63 17.2 66 66 SSW 7 11 29.91 1013 10 16.09344 0 0
8:52 am 08:52 Mostly Sunny 80 26.7 64 17.8 58 58 SSW 7 11 29.91 1013 10 16.09344 0 0
9:52 am 09:52 Mostly Sunny 84 28.9 64 17.8 51 51 SW 10 17 29.91 1013 10 16.09344 0 0
10:52 am 10:52 Mostly Sunny 86 30 67 19.4 53 53 S 8 13 29.91 1013 10 16.09344 0 0
11:52 am 11:52 Partly Cloudy 87 30.6 69 20.6 55 55 SSE 13 20 29.88 1012 10 16.09344 0 0
1:52 pm 13:52 Mostly Sunny 91 32.8 67 19.4 45 45 WSW 8 13 29.85 1011 10 16.09344 0 0
3:52 pm 15:52 Partly Cloudy 94 34.4 69 20.6 44 44 S 10 17 29.83 1010 10 16.09344 0 0
4:52 pm 16:52 Mostly Cloudy 92 33.3 68 20 46 46 SSW 13 20 29.8 1009 10 16.09344 0 0
5:34 pm 17:34 Mostly Cloudy with Thunderstorms 91 32.8 68 20 47 47 WNW 14 22 29.83 1010 10 16.09344 0 0
5:52 pm 17:52 Mostly Cloudy with Heavy Rain 84 28.9 70 21.1 63 63 VRB 5 7 29.8 1009 5 8.04672 0.04 1.016
6:03 pm 18:03 Mostly Cloudy with Light Rain 84 28.9 72 22.2 67 67 NNE 5 7 29.83 1010 10 16.09344 0.03 0.762
7:47 pm 19:47 Mostly Cloudy with Thunderstorms 82 28 70 21 66 66 SW 7 11 29.83 1010 10 16.09344 0 0
7:52 pm 19:52 Mostly Cloudy with Thunderstorms 83 28.3 70 21.1 65 65 WNW 14 22 29.85 1011 10 16.09344 0 0
8:11 pm 20:11 Mostly Cloudy with Thunderstorms 76 24.4 69 20.6 79 79 NW 20 31 29.91 1013 8 12.874752 0.01 0.254
8:15 pm 20:15 Mostly Cloudy with Heavy Thunderstorms 75 23.9 70 21.1 84 84 NW 23 37 29.91 1013 4 6.437376 0.03 0.762
8:20 pm 20:20 Cloudy with Heavy Thunderstorms 74 23.3 70 21.1 88 88 NNW 22 35 29.91 1013 2.5 4.02336 0.11 2.794
8:28 pm 20:28 Cloudy with Heavy Thunderstorms 73 22.8 67 19.4 81 81 NW 24 39 29.91 1013 3 4.828032 0.22 5.588
8:46 pm 20:46 Cloudy with Light Thunderstorms 73 23 68 20 83 83 S 6 9 29.85 1011 9 14.484096 0.35 8.89
8:52 pm 20:52 Cloudy with Light Thunderstorms 73 22.8 68 20 84 84 SSW 9 15 29.83 1010 10 16.09344 0.35 8.89
9:00 pm 21:00 Mostly Cloudy 73 22.8 68 20 84 84 SSW 10 17 29.83 1010 10 16.09344 0.001 0.001
9:52 pm 21:52 Mostly Cloudy 74 23.3 69 20.6 85 85 ENE 5 7 29.83 1010 10 16.09344 0.001 0.001
10:52 pm 22:52 Cloudy 76 24.4 70 21.1 82 82 NNE 3 6 29.85 1011 10 16.09344 0 0
11:52 pm 23:52 Mostly Cloudy 76 24.4 71 21.7 85 85 Calm 29.85 1011 10 16.09344 0 0

Powered by AerisWeather